Location: Evergreen Manor
(41.4083°N, 81.4939°W)
Time: 06:29:09
(UTC+00:00)

Cosmos 332 Rocket - Pass Details

Date: 11 December 2019
Orbit: 683 x 703 km, 74.0° (Epoch: 23 January)

Event Time Altitude Azimuth Distance (km) Brightness Sun altitude
Rises 11:19:57 0° 192° (SSW) 3,075 7.2 -14.8°
Reaches altitude 10° 11:22:16 10° 190° (S) 2,162 6.4 -14.4°
Maximum altitude 11:27:07 71° 107° (ESE) 746 4.1 -13.5°
Drops below altitude 10° 11:32:00 10° 24° (NNE) 2,174 6.4 -12.7°
Sets 11:34:20 0° 22° (NNE) 3,095 7.2 -12.3°
